Orbital Elements at Epoch 2459000.5 (2020-May-31.0) TDB
Reference: JPL 24 (heliocentric ecliptic J2000)
Element | Value | Uncertainty (1-sigma) | Units |
e | .2106365759590483 | 2.8408e-08 | |
a | 2.408680791373008 | 8.7127e-09 | au |
q | 1.901324516899867 | 6.9324e-08 | au |
i | 8.851994998067278 | 5.2547e-06 | deg |
node | 171.138927609153 | 2.1144e-05 | deg |
peri | 259.7765520927018 | 2.5105e-05 | deg |
M | 205.5797872640121 | 1.3851e-05 | deg |
tp | 2459586.191533918486 (2022-Jan-06.69153392) | 5.3946e-05 | TDB |
period | 1365.423272477568 3.74 | 7.4085e-06 2.028e-08 | d yr |
n | .2636545071820682 | 1.4305e-09 | deg/d |
Q | 2.91603706584615 | 1.0548e-08 | au |
|
| | Orbit Determination Parameters
Additional Information
|